Location: Anjeux
(47.8815°N, 6.2076°E)
Time: 17:30:02
(UTC+00:00)

SL-16 R/B - Pass Details

Date: 05 March 2021
Orbit: 843 x 846 km, 71.0° (Epoch: 14 April)

Event Time Altitude Azimuth Distance (km) Brightness Sun altitude
Exits shadow 04:19:07 12° 200° (SSW) 2,316 4.2 -19.0°
Drops below altitude 10° 04:19:35 10° 197° (SSW) 2,461 4.3 -18.9°
Sets 04:22:17 0° 187° (S) 3,392 5.2 -18.5°
